MDT,Max TemperatureF,Mean TemperatureF,Min TemperatureF,Max Dew PointF,MeanDew PointF,Min DewpointF,Max Humidity, Mean Humidity, Min Humidity, Max Sea Level PressureIn, Mean Sea Level PressureIn, Min Sea Level PressureIn, Max VisibilityMiles, Mean VisibilityMiles, Min VisibilityMiles, Max Wind SpeedMPH, Mean Wind SpeedMPH, Max Gust SpeedMPH,PrecipitationIn, CloudCover, Events, WindDirDegrees
2013-3-1,41,28,15,26,21,14,100,77,54,30.36,30.25,30.13,10,6,0,17,7,21,0.00,5,Fog,194
2013-3-2,51,41,30,35,32,25,89,71,52,30.10,30.02,29.88,10,10,9,20,9,25,T,2,,307
2013-3-3,49,41,33,42,34,30,96,78,60,29.86,29.62,29.53,10,7,0,30,9,37,0.22,7,Fog-Rain-Snow,210
2013-3-4,33,23,13,30,18,9,92,86,80,30.31,29.84,29.57,10,3,0,37,23,48,T,7,Fog-Snow,315
2013-3-5,20,15,9,13,11,5,88,81,73,30.48,30.39,30.26,10,6,2,23,9,28,T,8,Snow,338
2013-3-6,25,18,10,20,14,8,96,85,74,30.36,30.14,29.89,10,9,2,25,17,31,T,5,Snow,133
2013-3-7,35,27,18,28,23,16,96,86,75,30.19,30.03,29.86,10,10,7,21,9,25,0.00,5,,241
2013-3-8,33,27,21,28,24,19,96,91,85,30.20,30.11,29.90,10,7,4,14,7,17,0.00,6,,90
2013-3-9,33,24,15,29,23,12,100,83,66,30.26,29.97,29.84,10,5,0,28,13,33,T,5,Fog-Snow,322
2013-3-10,34,22,10,19,15,7,92,70,47,30.36,30.21,29.94,10,10,7,16,7,20,0.00,0,,273
2013-3-11,38,29,19,26,20,15,81,64,47,30.15,29.96,29.83,10,8,2,35,22,43,T,5,Snow,299
2013-3-12,28,21,13,14,11,8,88,65,42,30.37,30.25,30.07,10,9,4,29,15,35,T,3,Snow,315
2013-3-13,61,41,21,35,23,11,89,63,36,30.26,30.08,29.96,10,10,10,22,13,25,0.00,3,,222
2013-3-14,66,47,27,38,32,27,100,66,31,30.09,30.03,29.97,10,8,1,18,12,24,0.00,3,,332
2013-3-15,29,21,12,27,21,9,100,89,78,30.20,29.97,29.82,10,5,0,17,10,23,T,8,Fog,78
2013-3-16,23,18,12,12,10,8,92,77,62,30.22,30.11,30.01,10,6,1,23,10,28,0.01,8,Snow,66
2013-3-17,30,18,5,27,17,1,92,83,73,30.01,29.60,29.37,10,5,0,37,22,45,0.07,8,Fog-Snow,192
2013-3-18,23,13,3,10,2,-4,84,71,57,30.05,29.93,29.71,10,10,5,32,15,41,T,3,,295
2013-3-19,21,13,4,14,8,0,88,70,51,30.47,30.22,29.88,10,10,4,24,12,29,T,4,Snow,310
2013-3-20,37,20,3,18,9,-2,86,63,40,30.46,30.20,29.95,10,10,10,25,14,31,0.00,1,,145
2013-3-21,30,22,14,20,11,0,92,71,49,29.98,29.90,29.78,10,7,1,25,15,31,T,8,Snow,123
2013-3-22,29,19,8,21,15,7,92,81,69,30.17,29.93,29.82,10,5,1,21,10,25,0.04,8,Snow,142
2013-3-23,22,14,5,11,7,2,88,75,62,30.32,30.22,30.07,10,9,4,24,14,31,T,4,Snow,293
2013-3-24,25,16,6,16,10,5,91,80,68,30.43,30.24,30.13,10,5,1,20,12,25,T,7,Snow,317
2013-3-25,29,20,11,17,11,8,92,73,53,30.45,30.37,30.28,10,8,1,13,6,16,T,3,Snow,296
2013-3-26,42,28,14,24,18,9,88,68,48,30.27,30.17,30.11,10,10,10,21,11,24,0.00,0,,153
2013-3-27,51,34,16,28,21,14,92,61,29,30.17,30.13,30.10,10,10,10,12,8,15,0.00,1,,161
2013-3-28,55,41,26,34,29,23,92,65,38,30.17,30.13,30.10,10,9,4,13,7,15,0.00,2,,90
2013-3-29,59,42,25,39,32,24,92,70,47,30.14,30.06,29.98,10,8,3,17,5,22,0.00,3,,94
2013-3-30,54,42,30,36,32,28,100,71,41,30.09,30.04,30.01,10,5,0,14,11,,0.00,1,Fog,299
2013-3-31,31,23,15,25,22,12,92,80,68,30.31,30.11,30.03,10,4,0,14,7,16,0.01,7,Fog-Snow,13